TimeCEST,TemperatureF,Dew PointF,Humidity,Sea Level PressureIn,VisibilityMPH,Wind Direction,Wind SpeedMPH,Gust SpeedMPH,PrecipitationIn,Events,Conditions,WindDirDegrees,DateUTC
12:00 AM,35.6,26.6,70,30.30,-9999.0,East,8.1,-,N/A,,Clear,100,2013-10-03 22:00:00
1:00 AM,33.8,26.6,75,30.30,-9999.0,East,8.1,-,N/A,,Clear,80,2013-10-03 23:00:00
2:00 AM,32.0,26.6,80,30.27,-9999.0,ENE,9.2,-,N/A,,Clear,70,2013-10-04 00:00:00
3:00 AM,30.2,26.6,86,30.27,-9999.0,ENE,8.1,-,N/A,,Clear,70,2013-10-04 01:00:00
4:00 AM,30.2,26.6,86,30.27,-9999.0,ENE,6.9,-,N/A,,Clear,60,2013-10-04 02:00:00
5:00 AM,28.4,24.8,86,30.27,-9999.0,NE,4.6,-,N/A,,Clear,50,2013-10-04 03:00:00
7:00 AM,26.6,24.8,93,30.24,-9999.0,NE,5.8,-,N/A,,Clear,50,2013-10-04 05:00:00
8:00 AM,30.2,26.6,86,30.27,-9999.0,NE,6.9,-,N/A,,Clear,50,2013-10-04 06:00:00
8:30 AM,32.0,28.4,87,30.27,-9999.0,NE,6.9,-,N/A,,Clear,50,2013-10-04 06:30:00
9:00 AM,33.8,28.4,81,30.27,-9999.0,NE,8.1,-,N/A,,Clear,50,2013-10-04 07:00:00
9:30 AM,35.6,30.2,81,30.27,-9999.0,NE,6.9,-,N/A,,Clear,50,2013-10-04 07:30:00
10:00 AM,35.6,30.2,81,30.27,-9999.0,NE,8.1,-,N/A,,Clear,50,2013-10-04 08:00:00
10:30 AM,37.4,30.2,75,30.24,-9999.0,NE,9.2,-,N/A,,Clear,50,2013-10-04 08:30:00
11:00 AM,41.0,30.2,65,30.27,-9999.0,NE,6.9,-,N/A,,Clear,50,2013-10-04 09:00:00
11:30 AM,42.8,30.2,61,30.27,-9999.0,ESE,10.4,-,N/A,,Clear,120,2013-10-04 09:30:00
12:00 PM,42.8,30.2,61,30.27,-9999.0,SE,10.4,-,N/A,,Clear,140,2013-10-04 10:00:00
12:30 PM,42.8,30.2,61,30.27,-9999.0,SE,10.4,-,N/A,,Clear,130,2013-10-04 10:30:00
1:00 PM,42.8,30.2,61,30.27,-9999.0,ESE,13.8,-,N/A,,Clear,120,2013-10-04 11:00:00
1:30 PM,44.6,32.0,61,30.27,-9999.0,ESE,13.8,-,N/A,,Clear,120,2013-10-04 11:30:00
2:00 PM,46.4,32.0,57,30.24,-9999.0,ESE,15.0,-,N/A,,Clear,120,2013-10-04 12:00:00
2:30 PM,48.2,32.0,54,30.24,-9999.0,ESE,12.7,-,N/A,,Clear,120,2013-10-04 12:30:00
3:00 PM,48.2,32.0,54,30.24,-9999.0,ESE,12.7,-,N/A,,Clear,120,2013-10-04 13:00:00
3:30 PM,50.0,33.8,54,30.24,-9999.0,ESE,12.7,-,N/A,,Clear,120,2013-10-04 13:30:00
4:00 PM,50.0,32.0,50,30.24,-9999.0,ESE,11.5,-,N/A,,Clear,120,2013-10-04 14:00:00
4:30 PM,50.0,33.8,54,30.21,-9999.0,East,9.2,-,N/A,,Clear,100,2013-10-04 14:30:00
5:00 PM,50.0,33.8,54,30.21,-9999.0,East,11.5,-,N/A,,Clear,100,2013-10-04 15:00:00
5:30 PM,48.2,33.8,58,30.21,-9999.0,East,9.2,-,N/A,,Clear,100,2013-10-04 15:30:00
6:00 PM,48.2,33.8,58,30.21,-9999.0,ESE,6.9,-,N/A,,Clear,110,2013-10-04 16:00:00
6:30 PM,46.4,33.8,62,30.21,-9999.0,East,5.8,-,N/A,,Clear,90,2013-10-04 16:30:00
7:00 PM,44.6,33.8,66,30.21,-9999.0,ENE,5.8,-,N/A,,Clear,70,2013-10-04 17:00:00
7:30 PM,44.6,35.6,71,30.21,-9999.0,ENE,4.6,-,N/A,,Clear,60,2013-10-04 17:30:00
8:00 PM,44.6,33.8,66,30.21,-9999.0,ENE,4.6,-,N/A,,Clear,70,2013-10-04 18:00:00
8:30 PM,44.6,35.6,71,30.21,6.2,ENE,4.6,-,N/A,,Partly Cloudy,60,2013-10-04 18:30:00
9:00 PM,46.4,33.8,62,30.21,6.2,ENE,4.6,-,N/A,,Partly Cloudy,70,2013-10-04 19:00:00
10:00 PM,46.4,35.6,66,30.18,-9999.0,East,6.9,-,N/A,,Clear,90,2013-10-04 20:00:00
11:00 PM,44.6,32.0,61,30.18,-9999.0,ESE,5.8,-,N/A,,Clear,110,2013-10-04 21:00:00